Regional Weather Roundup
Issued by NWS Grand Forks, ND

Home | Current Version | Previous Version | Text Only | Print | Product List | Glossary Off
Versions: 1 2 3 4 5 6 7 8 9 10 11 12 13 14 15 16 17 18 19 20 21 22 23 24 25 26 27 28 29 30 31 32 33 34 35 36 37 38 39 40 41 42 43 44 45 46 47 48 49 50

000
ASUS43 KFGF 271010
RWRFGF
PRAIRIE TO PINES  WEATHER ROUNDUP
NATIONAL WEATHER SERVICE EASTERN NORTH DAKOTA/GRAND FORKS ND
400 AM CST FRI FEB 27 2015

 **SATELLITE DATA USED TO AUGMENT SKY COVER AT AUTOMATED STATIONS**
 *****  WEATHER ACROSS EASTERN NORTH DAKOTA  *****

CITY           SKY/WX    TMP DP  RH WIND       PRES   REMARKS
GRAND FORKS    PTCLDY   -12 -18  74 SW5       30.45F WCI -24
GRAND FRKS AFB PTCLDY    -9 -17  70 W7        30.44F WCI -24
GRAND FRKS NWS   N/A     -9 N/A N/A W7          N/A  WCI -24
DEVILS LAKE    MOCLDY   N/A N/A N/A MISG        N/A
FARGO          PTCLDY   -11 -17  75 SW7       30.49S WCI -26
WAHPETON ARPT  SUNNY     -9 -15  77 W6        30.51R WCI -23
$$

 ***** WEATHER ACROSS CENTRAL AND WESTERN NORTH DAKOTA  *****

CITY           SKY/WX    TMP DP  RH WIND       PRES   REMARKS
BISMARCK       PTCLDY   -12 -17  78 CALM      30.44F
MINOT          MOCLDY    -9 -15  75 SW9       30.37F WCI -26
JAMESTOWN      PTCLDY   -10 -16  74 W7        30.42F WCI -25
MINOT AFB      MOCLDY   -12 -17  81 W6        30.37F WCI -26
GARRISON         N/A    -14 -20  74 CALM      30.37F
WILLISTON      MOCLDY   -13 -18  78 CALM      30.33F
DICKINSON      CLEAR     -6 -12  75 S7        30.28F WCI -20
HETTINGER      CLEAR     -7 -12  79 SE3       30.31F
$$

 *****  OTHER AIRPORT OBSERVATIONS IN OUR AREA  *****

CITY           SKY/WX    TMP DP  RH WIND       PRES   REMARKS
WALHALLA         N/A     -2 -11  65 W8G16     30.40F WCI -17
GRAFTON AIRPOR NOT AVBL
VALLEY CITY AR FAIR      -8 -13  77 W7        30.44S WCI -22
CANDO          FAIR     -13 -18  77 W9        30.40S WCI -31
CAVALIER APRT  FAIR       0  -9  65 W12       30.41F WCI -18
GWINNER        SUNNY     -6 -13  71 W8        30.48S WCI -21
SHEYENNE NWR     N/A    -14 -21  69 W6        29.95  WCI -28
ROLLA          FAIR      -9 -17  70 SW6       30.34F WCI -23
 ***** THE ABOVE OBSERVATIONS ARE NON NWS ARE NOT QUALITY
       CONTROLLED AND MAY MIS-REPORT RAIN FOR SNOW...
$$

  *****  WEATHER ACROSS NORTHERN MINNESOTA  *****

CITY           SKY/WX    TMP DP  RH WIND       PRES   REMARKS
FLAG ISLAND    PTCLDY   -13 -18  77 S5        30.35S WCI -25
WARROAD        MOCLDY    -9 -15  77 SW6       30.37S WCI -23
ROSEAU         MOCLDY    -9 -17  70 SW8       30.39S WCI -26
HALLOCK        NOT AVBL
THF RVR FALLS  PTCLDY   -11 -24  53 SW5       30.41S WCI -23
BAUDETTE       MOCLDY   -13 -18  78 W3        30.35S
WASKISH        MOCLDY    -9 -13  84 SW6       30.39R WCI -23
CROOKSTON      PTCLDY   -15 -18  84 S6        30.46F WCI -29
STEPHEN NDAWN    N/A    -11 -17  77 SW6         N/A  WCI -25
GREENBUSH NDAW   N/A    -11 -15  84 VRB6        N/A  WCI -25
$$
  *****  WEATHER ACROSS CENTRAL AND WEST MINNESOTA  *****

CITY           SKY/WX    TMP DP  RH WIND       PRES   REMARKS
FOSSTON        MOCLDY   -18 -22  83 S7        30.42S WCI -35
BEMIDJI        PTCLDY   -10 -15  81 CALM      30.38F
PARK RAPIDS    PTCLDY   -13 -19  75 W5        30.39S WCI -25
ELBOW LAKE     FAIR     -10 -14  82 SW6       30.47S WCI -24
WADENA         PTCLDY   -11 -15  84 W5        30.43R WCI -23
DETROIT LAKES  PTCLDY    -8 -11  84 CALM      30.43S
MOORHEAD       PTCLDY    -8 -11  84 SW6       30.49S WCI -21
FERGUS FALLS   CLEAR     -9 -15  77 SW3       30.52S
MORRIS MN      CLEAR     -9 -15  77 CALM      30.48F
STAPLES        PTCLDY   -11 -17  77 W5        30.43S WCI -23
$$
  *****  WEATHER ELSEWHERE ACROSS MINNESOTA  *****

CITY           SKY/WX    TMP DP  RH WIND       PRES   REMARKS
DULUTH         PTCLDY    -8 -14  74 W7        30.35R WCI -23
INTRNTL FALLS  MOCLDY   -16 -21  78 CALM      30.36S
ELY            MOCLDY   -18 -22  83 SW3       30.33S
CLOQUET        FAIR      -8 -15  71 W7        30.38R WCI -22
WHEATON        CLEAR     -9 -15  77 SW6       30.52F WCI -23
BRAINERD       CLEAR    -14 -18  82 CALM      30.43F
HIBBING        MOCLDY   -19 -25  73 CALM      30.36S
ALEXANDRIA     CLEAR     -9 -13  83 W6        30.44F WCI -22
SAINT CLOUD    CLEAR     -6 -10  83 SW3       30.48S
MINNEAPOLIS    CLEAR     -2  -9  72 W3        30.51S
$$

  *****  WEATHER ACROSS SOUTH DAKOTA  *****

CITY           SKY/WX    TMP DP  RH WIND       PRES   REMARKS
SIOUX FALLS    CLEAR     -9 -14  78 CALM      30.51F
BROOKINGS      NOT AVBL
WATERTOWN      PTCLDY   -14 -19  79 CALM      30.45S
HURON          PTCLDY   -14 -18  82 CALM      30.53F
SISSETON         N/A     -7 -13  75 W6        30.49S WCI -20
ABERDEEN       CLEAR    -15 -21  74 W6        30.51S WCI -29
MITCHELL       CLEAR     -5 -10  79 W6        30.55F WCI -18
PIERRE         CLEAR     -3  -8  79 SW3       30.46F
MOBRIDGE       PTCLDY    -9 -13  83 SE3       30.41F
RAPID CITY     CLEAR     -6 -11  79 SE3       30.27F
$$

  *****  SOME WEATHER IN NEARBY STATES *****

CITY           SKY/WX    TMP DP  RH WIND       PRES   REMARKS
GLASGOW MT     CLEAR      2  -5  72 SE12      30.20F WCI -15
GREAT FALLS MT PTCLDY    11   4  73 S7        29.94F WCI   0
CHEYENNE WY    CLOUDY     3  -2  79 SE10      29.98F HAZE    WCI -12
SCOTTSBLUFF NE LGT SNOW   7   1  76 SE14      30.22F WCI -10
OMAHA NE       CLEAR     -2  -7  79 NW6       30.60F WCI -14
DES MOINES IA  CLEAR     -5 -11  75 NW3       30.58R
DAVENPORT IA   CLEAR    -16 -21  78 W8        30.54R WCI -34
CHICAGO IL     CLEAR      2  -8  63 NW10      30.47R WCI -14
EAU CLAIRE WI  CLEAR     -6 -13  71 W5        30.47R WCI -17
LA CROSSE WI   CLEAR     -6 -11  79 CALM      30.52S
$$

  *****  SOME NATIONAL WEATHER *****

CITY           SKY/WX    TMP DP  RH WIND       PRES   REMARKS
LA GUARDIA NY  MOCLDY    20   7  57 N8        30.25R WCI  10
RALEIGH NC     PTCLDY    25  22  88 CALM      30.22R FOG
ATLANTA GA     PTCLDY    31  25  78 NW10      30.23R WCI  22
NEW ORLEANS LA CLOUDY    37  30  75 NE17      30.33S
OKLAHOMA CITY  CLOUDY    20   1  43 NE16G26   30.45F WCI   6
ALBUQUERQUE NM CLOUDY    24  15  68 E23       29.95F WCI   9
SALT LAKE CITY MOCLDY    29  27  92 SE7       29.87F WCI  22
LOS ANGELES CA MOCLDY    54  52  93 NE3       29.84S
BOISE ID       CLOUDY    37  31  78 SE3       29.84F
SEATTLE WA     LGT RAIN  48  45  87 E3        29.77F
$$

*** WEATHER ACROSS MANITOBA...SASKATCHEWAN AND ONTARIO ***
                ***ONTARIO***

CITY           SKY/WX    TMP DP  RH WIND       PRES   REMARKS
GERALDTON      CLEAR     -8 -11  84 W8        30.16S WCI -23
THUNDER BAY    CLEAR     -8 -15  71 SW6       30.35R WCI -21
SIOUX LOOKOUT  CLEAR    -15 -18  84 S3        30.25S
TORONTO        CLEAR     -2  -9  71 W7        30.35R WCI -16
BIG TROUT LK   MOCLDY     1  -9  60 W10       29.98F WCI -14
PICKLE LAKE    NOT AVBL
DRYDEN         CLEAR    -11 -15  84 SW10      30.27S WCI -30
KENORA         CLEAR     -9 -15  77 W8        30.30S WCI -26
$$
                *** MANITOBA***

CITY           SKY/WX    TMP DP  RH WIND       PRES   REMARKS
BRANDON        CLEAR    -15 -20  76 W12       30.37F WCI -36
DAUPHIN        CLEAR      1 -11  55 W15G21    30.33F WCI -18
ISLAND LAKE    PTCLDY     1 -13  51 W9        30.08F WCI -14
PILOT MOUND      N/A    -11 -17  77 W6          N/A  WCI -25
THE PAS        CLOUDY     0 -11  60 W13       30.18F WCI -18
THOMPSON       MOCLDY     5  -8  56 W10       29.97F WCI -10
WINNIPEG       CLEAR     -6 -15  65 W9        30.39F WCI -22
LYNN LAKE        N/A      7   0  72 NW9G17    29.97S WCI  -7
CHURCHILL      CRYSTALS   1  -4  78 NW20      29.84S WCI -20
GILLAM         CLEAR      7  -6  56 W13       29.89F WCI  -9
$$
                ***SASKATCHEWAN***

CITY           SKY/WX    TMP DP  RH WIND       PRES   REMARKS
ESTEVAN        CLEAR    -13 -18  77 SW7       30.32F WCI -29
KINDERSLEY     MOCLDY    -8 -13  77 S5        30.12F WCI -19
LLOYDMINSTER   FLURRIES  -4  -8  84 SW10      30.10F WCI -21
PRINCE ALBERT  PTCLDY   -15 -18  84 SW5       30.22F WCI -27
REGINA         CLEAR    -17 -22  76 E9        30.27F WCI -36
YORKTON        CLEAR     -9 -15  77 SW9       30.28F WCI -27
N. BATTLEFORD  CLEAR    -13 -17  84 SE5       30.19F WCI -25
LA RONGE       CLOUDY     1  -9  60 SW6       30.14F WCI -10
SASKATOON      PTCLDY   -13 -18  77 S5        30.23F WCI -25
SWIFT CURRENT  CLEAR      1  -6  71 S18       30.07F WCI -19
$$
NOTE: THESE ARE AUTOMATED STATIONS WITH LIMITED QUALITY CONTROL
      "FAIR" INDICATES FEW OR NO CLOUDS BELOW 12,000 FEET WITH NO
      SIGNIFICANT WEATHER AND/OR OBSTRUCTIONS TO VISIBILITY.
      SKY/WX - SKY CONDITION AND SIGNIFICANT WEATHER.
      TMP - AIR TEMPERATURE.    DP   - DEWPOINT TEMPERATURE.
      RH  - RELATIVE HUMIDITY.  PRES - PRESSURE.
      HX  - HEAT INDEX.         WCI  - WIND CHILL INDEX.
$



USA.gov is the U.S. government's official web portal to all federal, state and local government web resources and services.